• In Uzbekistan
  • List of Countries
  • For 7 days
  • Water Temperature
  • Satellite Maps
  • Weather Map
  • Weather Widgets
  • user-avatar
    Login

    Hourly Weather Kozani

    Today, 19 June, Tuesday

    Time Temperature Precipitation Wind Pressure Humidity
    00:00 +18°C° 0.2 mm 1 mps 702 mmHg 84%
    01:00 +16°C° 0.2 mm 1 mps 702 mmHg 85%
    02:00 +16°C° 0.1 mm 1 mps 702 mmHg 86%
    03:00 +16°C° 0.1 mm 1 mps 702 mmHg 87%
    04:00 +16°C° 0.1 mm 1 mps 702 mmHg 87%
    05:00 +17°C° 0.1 mm 2 mps 702 mmHg 84%
    06:00 +18°C° 0.1 mm 2 mps 703 mmHg 80%
    07:00 +20°C° 0.1 mm 2 mps 703 mmHg 77%
    08:00 +21°C° 0.7 mm 2 mps 704 mmHg 74%
    09:00 +21°C° 0.7 mm 2 mps 704 mmHg 71%
    10:00 +23°C° 0.7 mm 2 mps 704 mmHg 67%
    11:00 +24°C° 1.1 mm 2 mps 704 mmHg 65%
    12:00 +24°C° 1.1 mm 2 mps 704 mmHg 63%
    13:00 +25°C° 1.1 mm 2 mps 704 mmHg 60%
    14:00 +25°C° 1.1 mm 2 mps 704 mmHg 60%
    15:00 +25°C° 1.1 mm 2 mps 704 mmHg 59%
    16:00 +25°C° 1.1 mm 2 mps 704 mmHg 58%
    17:00 +24°C° 0.6 mm 1 mps 704 mmHg 63%
    18:00 +22°C° 0.6 mm 1 mps 704 mmHg 67%
    19:00 +21°C° 0.6 mm 1 mps 704 mmHg 71%
    20:00 +20°C° 0.5 mm 1 mps 704 mmHg 73%
    21:00 +19°C° 0.5 mm 1 mps 705 mmHg 74%
    22:00 +19°C° 0.5 mm 1 mps 705 mmHg 75%
    23:00 +18°C° 0.1 mm 1 mps 705 mmHg 76%

    Tomorrow, 20 June, Wednesday

    Time Temperature Precipitation Wind Pressure Humidity
    00:00 +18°C° 0.1 mm 1 mps 705 mmHg 76%
    01:00 +18°C° 0.1 mm 1 mps 705 mmHg 77%
    02:00 +16°C° 0 mm 1 mps 705 mmHg 77%
    03:00 +16°C° 0 mm 1 mps 705 mmHg 78%
    04:00 +16°C° 0 mm 1 mps 705 mmHg 79%
    05:00 +19°C° 0 mm 1 mps 705 mmHg 75%
    06:00 +19°C° 0 mm 2 mps 706 mmHg 71%
    07:00 +21°C° 0 mm 2 mps 706 mmHg 66%
    08:00 +23°C° 0.1 mm 2 mps 706 mmHg 60%
    09:00 +25°C° 0.1 mm 2 mps 706 mmHg 54%
    10:00 +26°C° 0.1 mm 2 mps 707 mmHg 48%
    11:00 +26°C° 0.1 mm 2 mps 707 mmHg 48%
    12:00 +27°C° 0.1 mm 2 mps 706 mmHg 47%
    13:00 +27°C° 0.1 mm 2 mps 706 mmHg 47%
    14:00 +26°C° 0.1 mm 2 mps 706 mmHg 49%
    15:00 +26°C° 0.1 mm 2 mps 706 mmHg 51%
    16:00 +26°C° 0.1 mm 1 mps 706 mmHg 52%
    17:00 +24°C° 0.1 mm 1 mps 706 mmHg 56%
    18:00 +23°C° 0.1 mm 1 mps 706 mmHg 59%
    19:00 +22°C° 0.1 mm 1 mps 706 mmHg 62%
    20:00 +21°C° 0.1 mm 1 mps 706 mmHg 63%
    21:00 +20°C° 0.1 mm 1 mps 706 mmHg 65%
    22:00 +19°C° 0.1 mm 1 mps 706 mmHg 66%
    23:00 +19°C° 0 mm 1 mps 706 mmHg 67%

    Day after tomorrow, 21 June, Thursday

    Time Temperature Precipitation Wind Pressure Humidity
    00:00 +19°C° 0 mm 1 mps 706 mmHg 68%
    01:00 +19°C° 0 mm 1 mps 706 mmHg 69%
    02:00 +18°C° 0 mm 1 mps 705 mmHg 69%
    03:00 +18°C° 0 mm 1 mps 705 mmHg 70%
    04:00 +18°C° 0 mm 1 mps 705 mmHg 71%
    05:00 +20°C° 0 mm 1 mps 705 mmHg 67%
    06:00 +21°C° 0 mm 1 mps 706 mmHg 63%
    07:00 +23°C° 0 mm 1 mps 706 mmHg 59%
    08:00 +24°C° 0.1 mm 1 mps 706 mmHg 55%
    09:00 +26°C° 0.1 mm 1 mps 706 mmHg 51%
    10:00 +27°C° 0.1 mm 1 mps 706 mmHg 47%
    11:00 +28°C° 0.1 mm 1 mps 706 mmHg 46%
    12:00 +28°C° 0.1 mm 1 mps 705 mmHg 45%
    13:00 +28°C° 0.1 mm 1 mps 705 mmHg 44%
    14:00 +28°C° 0.1 mm 1 mps 705 mmHg 45%
    15:00 +28°C° 0.1 mm 1 mps 705 mmHg 46%
    16:00 +28°C° 0.1 mm 1 mps 705 mmHg 47%
    17:00 +26°C° 0.1 mm 1 mps 704 mmHg 51%
    18:00 +24°C° 0.1 mm 1 mps 704 mmHg 56%
    19:00 +23°C° 0.1 mm 1 mps 704 mmHg 60%
    20:00 +22°C° 0.2 mm 1 mps 704 mmHg 63%
    21:00 +21°C° 0.2 mm 1 mps 704 mmHg 65%
    22:00 +20°C° 0.2 mm 1 mps 704 mmHg 67%
    23:00 +20°C° 0 mm 1 mps 704 mmHg 69%

    22 June, Friday

    Time Temperature Precipitation Wind Pressure Humidity
    00:00 +19°C° 0 mm 1 mps 703 mmHg 71%
    01:00 +18°C° 0 mm 2 mps 703 mmHg 73%
    02:00 +17°C° 0 mm 2 mps 703 mmHg 74%
    03:00 +17°C° 0 mm 2 mps 703 mmHg 76%
    04:00 +18°C° 0 mm 1 mps 702 mmHg 77%
    05:00 +20°C° 0 mm 1 mps 703 mmHg 72%
    06:00 +21°C° 0 mm 1 mps 703 mmHg 67%
    07:00 +23°C° 0 mm 1 mps 703 mmHg 63%
    08:00 +25°C° 0.1 mm 1 mps 703 mmHg 57%
    09:00 +26°C° 0.1 mm 1 mps 703 mmHg 52%
    10:00 +28°C° 0.1 mm 1 mps 704 mmHg 47%
    11:00 +28°C° 0.3 mm 2 mps 703 mmHg 46%
    12:00 +29°C° 0.3 mm 2 mps 703 mmHg 45%
    13:00 +29°C° 0.3 mm 2 mps 703 mmHg 43%
    14:00 +29°C° 0.2 mm 3 mps 702 mmHg 46%
    15:00 +29°C° 0.2 mm 3 mps 702 mmHg 49%
    16:00 +28°C° 0.2 mm 3 mps 702 mmHg 51%
    17:00 +26°C° 0.3 mm 3 mps 702 mmHg 58%
    18:00 +25°C° 0.3 mm 3 mps 702 mmHg 65%
    19:00 +23°C° 0.3 mm 2 mps 701 mmHg 71%
    20:00 +21°C° 0.6 mm 2 mps 702 mmHg 74%
    21:00 +20°C° 0.6 mm 2 mps 702 mmHg 77%
    22:00 +19°C° 0.6 mm 2 mps 702 mmHg 80%
    23:00 +19°C° 0.3 mm 2 mps 702 mmHg 82%

    23 June, Saturday

    Time Temperature Precipitation Wind Pressure Humidity
    00:00 +18°C° 0.3 mm 2 mps 702 mmHg 84%
    01:00 +18°C° 0.3 mm 2 mps 702 mmHg 85%
    02:00 +17°C° 0.1 mm 2 mps 702 mmHg 86%
    03:00 +17°C° 0.1 mm 2 mps 702 mmHg 87%
    04:00 +17°C° 0.1 mm 2 mps 702 mmHg 87%
    05:00 +18°C° 0.1 mm 2 mps 702 mmHg 82%
    06:00 +19°C° 0.1 mm 3 mps 703 mmHg 76%
    07:00 +20°C° 0.1 mm 3 mps 703 mmHg 71%
    08:00 +21°C° 0 mm 3 mps 703 mmHg 65%
    09:00 +24°C° 0 mm 3 mps 704 mmHg 59%
    10:00 +25°C° 0 mm 3 mps 704 mmHg 53%
    11:00 +26°C° 0.1 mm 3 mps 704 mmHg 51%
    12:00 +26°C° 0.1 mm 3 mps 704 mmHg 49%
    13:00 +27°C° 0.1 mm 2 mps 704 mmHg 47%
    14:00 +26°C° 0.2 mm 3 mps 704 mmHg 49%
    15:00 +26°C° 0.2 mm 3 mps 704 mmHg 51%
    16:00 +25°C° 0.2 mm 3 mps 704 mmHg 53%
    17:00 +23°C° 0.4 mm 2 mps 704 mmHg 59%
    18:00 +21°C° 0.4 mm 2 mps 704 mmHg 66%
    19:00 +19°C° 0.4 mm 2 mps 704 mmHg 72%
    20:00 +18°C° 0.2 mm 2 mps 704 mmHg 74%
    21:00 +19°C° 0.2 mm 1 mps 704 mmHg 76%
    22:00 +18°C° 0.2 mm 1 mps 704 mmHg 77%
    23:00 +18°C° 0.2 mm 1 mps 704 mmHg 78%

    24 June, Sunday

    Time Temperature Precipitation Wind Pressure Humidity
    00:00 +16°C° 0.2 mm 1 mps 704 mmHg 79%
    01:00 +16°C° 0.2 mm 1 mps 704 mmHg 80%
    02:00 +16°C° 0.2 mm 1 mps 704 mmHg 80%
    03:00 +16°C° 0.2 mm 1 mps 704 mmHg 81%
    04:00 +16°C° 0.2 mm 1 mps 704 mmHg 81%
    05:00 +16°C° 0.1 mm 1 mps 704 mmHg 79%
    06:00 +18°C° 0.1 mm 1 mps 704 mmHg 77%
    07:00 +19°C° 0.1 mm 1 mps 704 mmHg 75%
    08:00 +18°C° 0.1 mm 2 mps 705 mmHg 74%
    09:00 +19°C° 0.1 mm 2 mps 705 mmHg 73%
    10:00 +19°C° 0.1 mm 2 mps 705 mmHg 72%
    11:00 +20°C° 0.2 mm 2 mps 705 mmHg 72%
    12:00 +20°C° 0.2 mm 2 mps 705 mmHg 73%
    13:00 +20°C° 0.2 mm 2 mps 705 mmHg 73%
    14:00 +21°C° 0.3 mm 2 mps 705 mmHg 72%
    15:00 +21°C° 0.3 mm 2 mps 704 mmHg 72%
    16:00 +21°C° 0.3 mm 2 mps 704 mmHg 71%
    17:00 +20°C° 0.3 mm 2 mps 704 mmHg 76%
    18:00 +19°C° 0.3 mm 2 mps 704 mmHg 80%
    19:00 +19°C° 0.3 mm 1 mps 704 mmHg 84%
    20:00 +18°C° 0.1 mm 1 mps 704 mmHg 87%
    21:00 +18°C° 0.1 mm 1 mps 704 mmHg 90%
    22:00 +15°C° 0.1 mm 0 mps 705 mmHg 92%
    23:00 +15°C° 0 mm 0 mps 704 mmHg 92%
    Show more